User: anonymous   Login
Location: Unspecified
(0.0000°N, 0.0000°E)
Time: 01:01:35
(UTC+00:00)
Language:

OBJECT C - Orbit

View from above orbital plane
View from above orbital plane
View from above satellite
View from above satellite

Ground track
Ground track

The orbit is defined by the following mean orbital elements,

1 53446U          26145.59616955 +.00000000 +00000-0 +64130-3 0 00006
2 53446  97.5598 274.3026 0003056 125.8740 234.2803 15.64000615    02
Epoch (UTC): 25 May 2026 14:18:29
Eccentricity: 0.0003056
inclination: 97.5598°
perigee height: 374 km
apogee height: 378 km
right ascension of ascending node: 274.3026°
argument of perigee: 125.8740°
revolutions per day: 15.64000615
mean anomaly at epoch: 234.2803°

The dashed part of the orbit path shows where the satellite is in the earth's shadow,  

DLR